TimeCST,TemperatureF,Dew PointF,Humidity,Sea Level PressureIn,VisibilityMPH,Wind Direction,Wind SpeedMPH,Gust SpeedMPH,PrecipitationIn,Events,Conditions,WindDirDegrees,DateUTC
12:15 AM,39.2,21.2,49,30.12,10.0,South,6.9,-,N/A,,Clear,190,2012-11-25 06:15:00
12:35 AM,39.2,19.4,45,30.12,10.0,SSW,9.2,-,N/A,,Clear,200,2012-11-25 06:35:00
1:15 AM,39.2,21.2,49,30.11,10.0,SSW,10.4,-,N/A,,Clear,210,2012-11-25 07:15:00
1:35 AM,41.0,21.2,45,30.10,10.0,SSW,9.2,16.1,N/A,,Clear,210,2012-11-25 07:35:00
1:55 AM,41.0,21.2,45,30.10,10.0,SW,6.9,-,N/A,,Clear,220,2012-11-25 07:55:00
2:16 AM,41.0,23.0,49,30.10,10.0,SSW,6.9,-,N/A,,Clear,200,2012-11-25 08:16:00
2:35 AM,39.2,24.8,56,30.09,10.0,SW,5.8,-,N/A,,Clear,220,2012-11-25 08:35:00
2:55 AM,41.0,23.0,49,30.09,10.0,SW,6.9,-,N/A,,Clear,220,2012-11-25 08:55:00
3:35 AM,39.2,23.0,52,30.09,10.0,WSW,10.4,-,N/A,,Clear,240,2012-11-25 09:35:00
3:55 AM,39.2,21.2,49,30.08,10.0,SW,5.8,-,N/A,,Clear,220,2012-11-25 09:55:00
4:15 AM,39.2,21.2,49,30.08,10.0,SSW,5.8,-,N/A,,Clear,200,2012-11-25 10:15:00
4:55 AM,37.4,24.8,60,30.07,10.0,SSE,5.8,-,N/A,,Clear,160,2012-11-25 10:55:00
5:15 AM,37.4,23.0,56,30.06,10.0,SSE,3.5,-,N/A,,Clear,150,2012-11-25 11:15:00
5:35 AM,37.4,24.8,60,30.06,10.0,SSE,4.6,-,N/A,,Clear,160,2012-11-25 11:35:00
5:55 AM,37.4,23.0,56,30.06,10.0,SE,5.8,-,N/A,,Clear,140,2012-11-25 11:55:00
6:15 AM,37.4,24.8,60,30.06,10.0,SE,5.8,-,N/A,,Clear,140,2012-11-25 12:15:00
6:35 AM,37.4,23.0,56,30.06,10.0,South,4.6,-,N/A,,Clear,180,2012-11-25 12:35:00
7:15 AM,37.4,23.0,56,30.06,10.0,SSW,5.8,-,N/A,,Clear,200,2012-11-25 13:15:00
7:35 AM,37.4,24.8,60,30.06,10.0,South,5.8,-,N/A,,Partly Cloudy,190,2012-11-25 13:35:00
7:55 AM,39.2,23.0,52,30.07,10.0,South,6.9,-,N/A,,Clear,190,2012-11-25 13:55:00
8:15 AM,41.0,24.8,53,30.07,10.0,South,5.8,-,N/A,,Clear,190,2012-11-25 14:15:00
8:35 AM,42.8,24.8,49,30.07,10.0,South,6.9,-,N/A,,Clear,190,2012-11-25 14:35:00
9:15 AM,46.4,26.6,46,30.07,10.0,South,9.2,-,N/A,,Clear,180,2012-11-25 15:15:00
9:35 AM,48.2,26.6,43,30.07,10.0,SSW,8.1,-,N/A,,Clear,200,2012-11-25 15:35:00
9:55 AM,50.0,26.6,40,30.07,10.0,South,9.2,-,N/A,,Clear,180,2012-11-25 15:55:00
10:16 AM,51.8,28.4,41,30.07,10.0,SSW,6.9,-,N/A,,Clear,210,2012-11-25 16:16:00
10:35 AM,53.6,30.2,41,30.06,10.0,SSW,6.9,-,N/A,,Clear,210,2012-11-25 16:35:00
11:35 AM,55.4,30.2,38,30.03,10.0,SSW,11.5,-,N/A,,Clear,200,2012-11-25 17:35:00
11:55 AM,57.2,30.2,36,30.01,10.0,SW,6.9,-,N/A,,Clear,220,2012-11-25 17:55:00
12:15 PM,59.0,30.2,34,30.01,10.0,SW,8.1,18.4,N/A,,Clear,230,2012-11-25 18:15:00
12:55 PM,60.8,30.2,31,29.99,10.0,SSW,11.5,-,N/A,,Clear,200,2012-11-25 18:55:00
1:15 PM,62.6,30.2,30,29.98,10.0,SSW,9.2,19.6,N/A,,Clear,210,2012-11-25 19:15:00
1:55 PM,62.6,33.8,34,29.96,10.0,SSW,10.4,-,N/A,,Clear,200,2012-11-25 19:55:00
2:15 PM,62.6,32.0,32,29.96,10.0,South,9.2,-,N/A,,Clear,180,2012-11-25 20:15:00
2:35 PM,62.6,30.2,30,29.95,10.0,SSW,10.4,-,N/A,,Clear,200,2012-11-25 20:35:00
2:55 PM,62.6,32.0,32,29.95,10.0,South,9.2,-,N/A,,Clear,170,2012-11-25 20:55:00
3:15 PM,60.8,32.0,34,29.96,10.0,South,9.2,-,N/A,,Clear,180,2012-11-25 21:15:00
3:35 PM,60.8,32.0,34,29.95,10.0,South,6.9,-,N/A,,Clear,180,2012-11-25 21:35:00
3:56 PM,60.8,33.8,36,29.95,10.0,SSE,5.8,-,N/A,,Clear,160,2012-11-25 21:56:00
4:15 PM,59.0,30.2,34,29.95,10.0,South,6.9,-,N/A,,Clear,170,2012-11-25 22:15:00
4:35 PM,59.0,33.8,39,29.95,10.0,South,4.6,-,N/A,,Clear,190,2012-11-25 22:35:00
5:15 PM,55.4,32.0,41,29.95,10.0,SSE,6.9,-,N/A,,Clear,160,2012-11-25 23:15:00
5:35 PM,55.4,33.8,44,29.96,10.0,SSE,6.9,-,N/A,,Clear,160,2012-11-25 23:35:00
5:55 PM,55.4,32.0,41,29.96,10.0,South,6.9,-,N/A,,Clear,170,2012-11-25 23:55:00
6:16 PM,53.6,33.8,47,29.96,10.0,SSE,6.9,-,N/A,,Clear,160,2012-11-26 00:16:00
6:35 PM,53.6,33.8,47,29.97,10.0,South,5.8,-,N/A,,Clear,170,2012-11-26 00:35:00
6:55 PM,53.6,33.8,47,29.98,10.0,SSE,6.9,-,N/A,,Clear,150,2012-11-26 00:55:00
7:35 PM,51.8,33.8,50,29.98,10.0,SSE,5.8,-,N/A,,Clear,150,2012-11-26 01:35:00
7:55 PM,51.8,33.8,50,29.98,10.0,SE,6.9,-,N/A,,Clear,140,2012-11-26 01:55:00
8:36 PM,51.8,33.8,50,29.99,10.0,SSE,8.1,-,N/A,,Clear,150,2012-11-26 02:36:00
8:55 PM,51.8,33.8,50,29.99,10.0,SSE,5.8,-,N/A,,Clear,160,2012-11-26 02:55:00
9:15 PM,51.8,33.8,50,30.00,10.0,South,3.5,-,N/A,,Clear,190,2012-11-26 03:15:00
9:35 PM,51.8,33.8,50,30.01,10.0,South,4.6,-,N/A,,Clear,170,2012-11-26 03:35:00
9:55 PM,51.8,33.8,50,30.01,10.0,South,3.5,-,N/A,,Clear,190,2012-11-26 03:55:00
10:15 PM,51.8,33.8,50,30.01,10.0,South,4.6,-,N/A,,Clear,180,2012-11-26 04:15:00
10:35 PM,51.8,33.8,50,30.02,10.0,SSW,5.8,-,N/A,,Clear,200,2012-11-26 04:35:00
10:55 PM,48.2,33.8,58,30.02,10.0,Calm,Calm,-,N/A,,Clear,0,2012-11-26 04:55:00
11:15 PM,48.2,33.8,58,30.03,10.0,South,3.5,-,N/A,,Clear,180,2012-11-26 05:15:00
11:35 PM,48.2,33.8,58,30.03,10.0,South,3.5,-,N/A,,Clear,170,2012-11-26 05:35:00